FW7817 Weather Reports


Display with metric or nautical units.
time (UTC)temp
F
wind
direction
speed
MPH
gust
MPH
rain 1hr
in
rain 24hr
in
rain mn
in
humidity
%
barometer
mb
20260905052605 80 130 0.0 0.0 0.00 0.00 0.00 71 1014.6
20260905052058 80 130 0.0 0.0 0.00 0.00 0.00 71 1014.6
20260905051552 80 130 0.0 0.0 0.00 0.00 0.00 71 1014.5
20260905051046 80 130 0.0 0.0 0.00 0.00 0.00 71 1014.5
20260905045536 80 130 0.0 0.0 0.00 0.00 0.00 70 1014.5
20260905045034 80 130 0.0 0.0 0.00 0.00 0.00 70 1014.4
20260905044534 80 130 0.0 0.0 0.00 0.00 0.00 70 1014.4
20260905044034 80 130 0.0 0.0 0.00 0.00 0.00 69 1014.5
20260905043533 81 130 0.0 0.0 0.00 0.00 0.00 69 1014.5
20260905043034 81 130 0.0 0.0 0.00 0.00 0.00 69 1014.5
20260905042532 81 130 0.0 0.0 0.00 0.00 0.00 69 1014.5
20260905040528 82 130 0.0 0.0 0.00 0.00 0.00 68 1014.5
20260905040026 82 130 0.0 0.0 0.00 0.00 0.00 67 1014.4
20260905034024 83 130 0.0 0.0 0.00 0.00 0.00 66 1014.3
20260905033523 83 130 0.0 0.0 0.00 0.00 0.00 66 1014.3
20260905033024 83 130 0.0 0.0 0.00 0.00 0.00 66 1014.3
20260905032020 83 130 0.0 0.0 0.00 0.00 0.00 65 1014.2
20260905031519 83 130 0.0 0.0 0.00 0.00 0.00 65 1014.1
20260905031020 84 130 0.0 2.0 0.00 0.00 0.00 64 1014.2
20260905030020 84 130 0.0 1.0 0.00 0.00 0.00 65 1014.0
20260905025520 84 130 0.0 1.0 0.00 0.00 0.00 65 1013.9
20260905025019 84 130 0.0 1.0 0.00 0.00 0.00 66 1013.9
20260905024519 84 130 0.0 1.0 0.00 0.00 0.00 66 1013.8
20260905023520 84 130 0.0 2.0 0.00 0.00 0.00 65 1013.6
20260905022519 84 129 0.0 1.0 0.00 0.00 0.00 65 1013.6
20260905022020 84 128 0.0 1.0 0.00 0.00 0.00 65 1013.6
20260905021520 84 128 0.0 1.0 0.00 0.00 0.00 65 1013.5
20260905021019 84 128 0.0 0.0 0.00 0.00 0.00 65 1013.5
20260905020520 84 128 0.0 0.0 0.00 0.00 0.00 65 1013.5
20260905020020 84 128 0.0 0.0 0.00 0.00 0.00 66 1013.5
20260905015516 84 128 0.0 0.0 0.00 0.00 0.00 66 1013.4
20260905015009 84 128 0.0 0.0 0.00 0.00 0.00 66 1013.4
20260905014504 85 128 0.0 0.0 0.00 0.00 0.00 64 1013.4
20260905013958 85 128 0.0 0.0 0.00 0.00 0.00 63 1013.2
20260905013451 86 128 0.0 0.0 0.00 0.00 0.00 63 1013.2
20260905012945 86 128 0.0 0.0 0.00 0.00 0.00 62 1013.3
20260905012439 87 128 0.0 0.0 0.00 0.00 0.00 61 1013.0
20260905011933 87 128 0.0 0.0 0.00 0.00 0.00 59 1013.0
20260905011428 87 128 0.0 0.0 0.00 0.00 0.00 59 1013.0
20260905010922 88 128 0.0 0.0 0.00 0.00 0.00 58 1012.9
20260905005909 89 128 0.0 0.0 0.00 0.00 0.00 55 1012.9
20260905005404 90 128 0.0 1.0 0.00 0.00 0.00 55 1013.0
20260905004857 90 128 0.0 1.0 0.00 0.00 0.00 54 1013.0
20260905004355 91 128 0.0 1.0 0.00 0.00 0.00 53 1012.9
20260905003352 91 128 0.0 2.0 0.00 0.00 0.00 52 1013.0
20260905002849 92 128 0.0 2.0 0.00 0.00 0.00 51 1013.0
20260905002347 92 128 0.0 2.0 0.00 0.00 0.00 50 1013.0
20260905001343 92 128 0.0 3.0 0.00 0.00 0.00 50 1013.2
20260905000841 93 128 0.0 3.0 0.00 0.00 0.00 49 1013.0
20260905000340 93 128 0.0 2.0 0.00 0.00 0.00 49 1013.2
20260904235837 94 128 1.0 2.0 0.00 0.00 0.00 48 1013.2
20260904235337 94 128 1.0 3.0 0.00 0.00 0.00 48 1013.3
20260904234837 94 128 0.0 3.0 0.00 0.00 0.00 48 1013.2
20260904233837 95 129 1.0 5.0 0.00 0.00 0.00 48 1013.4
20260904233335 95 115 1.0 5.0 0.00 0.00 0.00 46 1013.4
20260904232835 96 149 1.0 6.0 0.00 0.00 0.00 46 1013.4
20260904232335 96 168 2.0 6.0 0.00 0.00 0.00 46 1013.4
20260904231835 96 120 2.0 10.0 0.00 0.00 0.00 45 1013.4
20260904231335 96 154 2.0 10.0 0.00 0.00 0.00 46 1013.4
20260904230326 96 145 1.0 7.0 0.00 0.00 0.00 44 1013.4
20260904224809 97 133 1.0 6.0 0.00 0.00 0.00 45 1013.4
20260904224303 97 103 2.0 6.0 0.00 0.00 0.00 44 1013.3
20260904223757 97 159 3.0 8.0 0.00 0.00 0.00 45 1013.3
20260904223251 97 148 3.0 8.0 0.00 0.00 0.00 44 1013.4
20260904222239 97 140 3.0 7.0 0.00 0.00 0.00 44 1013.4
20260904221733 97 169 3.0 8.0 0.00 0.00 0.00 45 1013.4
20260904221227 97 130 3.0 8.0 0.00 0.00 0.00 45 1013.4
20260904220721 98 174 2.0 7.0 0.00 0.00 0.00 46 1013.4
20260904220214 97 132 2.0 6.0 0.00 0.00 0.00 46 1013.4
20260904215709 98 126 2.0 10.0 0.00 0.00 0.00 45 1013.4
20260904214657 98 355 2.0 9.0 0.00 0.00 0.00 46 1013.5
20260904214151 97 160 2.0 9.0 0.00 0.00 0.00 45 1013.5
20260904213645 98 133 2.0 7.0 0.00 0.00 0.00 43 1013.5
20260904212632 97 165 3.0 9.0 0.00 0.00 0.00 44 1013.6
20260904212126 97 111 4.0 9.0 0.00 0.00 0.00 45 1013.6
20260904211621 97 163 4.0 9.0 0.00 0.00 0.00 45 1013.6
20260904211115 97 147 4.0 9.0 0.00 0.00 0.00 45 1013.7
20260904210608 98 120 3.0 9.0 0.00 0.00 0.00 46 1013.7
20260904205557 98 140 3.0 10.0 0.00 0.00 0.00 45 1013.8
20260904205051 97 186 4.0 9.0 0.00 0.00 0.00 46 1013.6
20260904204545 98 161 4.0 10.0 0.00 0.00 0.00 46 1013.8
20260904204039 98 113 2.0 10.0 0.00 0.00 0.00 46 1013.7
20260904203533 98 119 1.0 6.0 0.00 0.00 0.00 45 1013.8
20260904203027 98 192 2.0 7.0 0.00 0.00 0.00 47 1013.8
20260904202015 97 97 3.0 11.0 0.00 0.00 0.00 47 1013.9
20260904201003 98 139 2.0 10.0 0.00 0.00 0.00 48 1014.0
20260904200456 98 252 2.0 7.0 0.00 0.00 0.00 48 1014.0
20260904195450 97 153 4.0 9.0 0.00 0.00 0.00 48 1014.1
20260904194939 96 104 3.0 10.0 0.00 0.00 0.00 48 1014.0
20260904194433 97 213 3.0 10.0 0.00 0.00 0.00 48 1014.1
20260904193927 96 192 4.0 10.0 0.00 0.00 0.00 49 1014.1
20260904193421 97 115 2.0 10.0 0.00 0.00 0.00 49 1014.3
20260904192915 97 127 2.0 6.0 0.00 0.00 0.00 51 1014.1
20260904192408 97 161 1.0 6.0 0.00 0.00 0.00 49 1014.2
20260904191902 96 156 1.0 6.0 0.00 0.00 0.00 49 1014.2
20260904191403 96 164 2.0 5.0 0.00 0.00 0.00 51 1014.3
20260904190901 96 223 2.0 8.0 0.00 0.00 0.00 50 1014.3
20260904190401 96 265 2.0 8.0 0.00 0.00 0.00 51 1014.3
20260904185901 96 150 2.0 8.0 0.00 0.00 0.00 50 1014.4
20260904184900 96 146 2.0 8.0 0.00 0.00 0.00 51 1014.5
20260904184400 96 178 2.0 8.0 0.00 0.00 0.00 54 1014.5
20260904183900 95 211 2.0 6.0 0.00 0.00 0.00 51 1014.5
20260904183401 95 111 2.0 8.0 0.00 0.00 0.00 52 1014.6
20260904182901 96 131 2.0 8.0 0.00 0.00 0.00 52 1014.6
20260904182357 96 106 2.0 10.0 0.00 0.00 0.00 53 1014.7
20260904181856 95 115 2.0 10.0 0.00 0.00 0.00 52 1014.7
20260904181356 95 261 3.0 10.0 0.00 0.00 0.00 52 1014.7
20260904180856 95 145 3.0 10.0 0.00 0.00 0.00 53 1014.8
20260904180357 95 136 3.0 10.0 0.00 0.00 0.00 55 1014.8
20260904175857 94 181 4.0 10.0 0.00 0.00 0.00 55 1014.9
20260904174857 94 100 3.0 12.0 0.00 0.00 0.00 53 1015.0
20260904174357 94 165 2.0 8.0 0.00 0.00 0.00 57 1015.0
20260904173851 95 237 2.0 8.0 0.00 0.00 0.00 54 1015.1
20260904173351 95 207 2.0 13.0 0.00 0.00 0.00 54 1015.2
20260904172849 94 207 2.0 13.0 0.00 0.00 0.00 55 1015.2
20260904171348 93 71 3.0 13.0 0.00 0.00 0.00 56 1015.2
20260904170849 94 136 2.0 11.0 0.00 0.00 0.00 55 1015.3
20260904165848 93 135 2.0 8.0 0.00 0.00 0.00 56 1015.4
20260904164846 92 132 2.0 7.0 0.00 0.00 0.00 58 1015.4
20260904164346 92 229 2.0 11.0 0.00 0.00 0.00 57 1015.4
20260904163845 92 153 2.0 11.0 0.00 0.00 0.00 58 1015.3
20260904163344 92 152 2.0 8.0 0.00 0.00 0.00 58 1015.4
20260904162844 92 315 2.0 8.0 0.00 0.00 0.00 58 1015.4
20260904162346 92 130 2.0 8.0 0.00 0.00 0.00 60 1015.3
20260904161334 91 142 1.0 7.0 0.00 0.00 0.00 60 1015.4
20260904160828 91 131 1.0 5.0 0.00 0.00 0.00 61 1015.3
20260904155816 91 161 3.0 8.0 0.00 0.00 0.00 60 1015.3
20260904154808 90 167 2.0 14.0 0.00 0.00 0.00 62 1015.4
20260904154309 90 174 2.0 9.0 0.00 0.00 0.00 60 1015.4
20260904153808 90 121 2.0 8.0 0.00 0.00 0.00 62 1015.3
20260904153308 89 126 3.0 9.0 0.00 0.00 0.00 63 1015.3
20260904152808 88 269 2.0 9.0 0.00 0.00 0.00 63 1015.4
20260904152307 88 175 1.0 8.0 0.00 0.00 0.00 63 1015.4
20260904151806 88 216 1.0 4.0 0.00 0.00 0.00 64 1015.5
20260904151306 88 234 2.0 6.0 0.00 0.00 0.00 65 1015.5
20260904150804 87 138 2.0 6.0 0.00 0.00 0.00 65 1015.5
20260904145807 87 105 2.0 6.0 0.00 0.00 0.00 68 1015.5
20260904145306 86 74 2.0 6.0 0.00 0.00 0.00 68 1015.5
20260904143804 86 168 1.0 9.0 0.00 0.00 0.00 68 1015.5
20260904143304 87 252 1.0 8.0 0.00 0.00 0.00 68 1015.5
20260904142803 86 171 1.0 4.0 0.00 0.00 0.00 68 1015.5
20260904142257 86 151 1.0 4.0 0.00 0.00 0.00 69 1015.5
20260904141245 85 175 1.0 4.0 0.00 0.00 0.00 70 1015.4
20260904135727 83 138 1.0 4.0 0.00 0.00 0.00 73 1015.4
20260904135222 82 163 1.0 6.0 0.00 0.00 0.00 74 1015.4
20260904134715 81 299 1.0 6.0 0.00 0.00 0.00 75 1015.3
20260904134209 81 156 1.0 6.0 0.00 0.00 0.00 75 1015.3
20260904133704 80 124 1.0 5.0 0.00 0.00 0.00 76 1015.3
20260904133158 80 121 1.0 4.0 0.00 0.00 0.00 76 1015.3
20260904132145 79 144 2.0 4.0 0.00 0.00 0.00 77 1015.2
20260904131640 78 140 2.0 6.0 0.00 0.00 0.00 78 1015.2
20260904131134 78 178 2.0 6.0 0.00 0.00 0.00 78 1015.2
20260904130628 78 127 1.0 6.0 0.00 0.00 0.00 79 1015.1
20260904125110 77 138 1.0 3.0 0.00 0.00 0.00 80 1015.1
20260904123552 77 167 1.0 5.0 0.00 0.00 0.00 80 1015.0
20260904123046 76 167 1.0 5.0 0.00 0.00 0.00 80 1014.9
20260904122539 77 190 0.0 2.0 0.00 0.00 0.00 79 1014.9
20260904122033 77 190 0.0 2.0 0.00 0.00 0.00 79 1014.9
20260904121528 77 192 0.0 3.0 0.00 0.00 0.00 79 1014.8
20260904121022 77 192 0.0 3.0 0.00 0.00 0.00 78 1014.8
20260904115504 77 244 0.0 1.0 0.00 0.00 0.00 77 1014.6
20260904114958 77 262 0.0 1.0 0.00 0.00 0.00 77 1014.6
20260904114452 78 262 0.0 3.0 0.00 0.00 0.00 77 1014.5
20260904113945 78 279 0.0 3.0 0.00 0.00 0.00 77 1014.6
20260904113446 78 117 0.0 2.0 0.00 0.00 0.00 77 1014.5
20260904112944 78 117 0.0 3.0 0.00 0.00 0.00 77 1014.5
20260904112444 78 217 0.0 3.0 0.00 0.00 0.00 77 1014.5
20260904111946 78 301 0.0 2.0 0.00 0.00 0.00 76 1014.5
20260904111441 78 301 0.0 3.0 0.00 0.00 0.00 76 1014.4
20260904110438 78 215 0.0 2.0 0.00 0.00 0.00 76 1014.0
20260904105937 78 273 0.0 2.0 0.00 0.00 0.00 76 1013.9
20260904105435 78 127 1.0 2.0 0.00 0.00 0.00 76 1013.9
20260904104936 78 253 1.0 2.0 0.00 0.00 0.00 76 1013.9
20260904104435 78 349 0.0 3.0 0.00 0.00 0.00 76 1013.8
20260904103935 79 245 1.0 3.0 0.00 0.00 0.00 76 1013.8
20260904103436 79 153 1.0 3.0 0.00 0.00 0.00 75 1013.8
20260904102936 79 250 0.0 3.0 0.00 0.00 0.00 75 1013.7
20260904102431 79 259 0.0 3.0 0.00 0.00 0.00 75 1013.6
20260904101931 79 219 0.0 4.0 0.00 0.00 0.00 75 1013.8
20260904101432 79 173 0.0 4.0 0.00 0.00 0.00 75 1013.6
20260904100931 79 176 0.0 2.0 0.00 0.00 0.00 74 1013.6
20260904095931 79 238 0.0 2.0 0.00 0.00 0.00 74 1013.6
20260904095431 79 180 0.0 2.0 0.00 0.00 0.00 74 1013.6
20260904094931 80 227 0.0 7.0 0.00 0.00 0.00 74 1013.5
20260904093932 80 230 0.0 7.0 0.00 0.00 0.00 74 1013.5
20260904093432 80 198 1.0 7.0 0.00 0.00 0.00 74 1013.5
20260904092931 80 159 1.0 3.0 0.00 0.00 0.00 73 1013.4
20260904092431 80 294 0.0 2.0 0.00 0.00 0.00 73 1013.4
20260904091431 80 236 1.0 4.0 0.00 0.00 0.00 73 1013.3
20260904090929 80 198 0.0 4.0 0.00 0.00 0.00 73 1013.3
20260904090430 80 207 1.0 4.0 0.00 0.00 0.00 73 1013.2
20260904085930 80 286 1.0 4.0 0.00 0.00 0.00 73 1013.2
20260904085429 80 241 1.0 3.0 0.00 0.00 0.00 72 1013.3
20260904084930 80 247 0.0 3.0 0.00 0.00 0.00 72 1013.2
20260904084429 80 175 0.0 2.0 0.00 0.00 0.00 72 1013.2
20260904083923 80 175 1.0 7.0 0.00 0.00 0.00 72 1013.0
20260904083417 80 197 1.0 7.0 0.00 0.00 0.00 72 1012.9
20260904082405 80 175 1.0 2.0 0.00 0.00 0.00 72 1012.9
20260904081354 80 86 1.0 6.0 0.00 0.00 0.00 73 1013.0
20260904080847 80 270 1.0 6.0 0.00 0.00 0.00 73 1012.9
20260904075835 80 230 1.0 4.0 0.00 0.00 0.00 73 1012.9
20260904075329 80 132 1.0 3.0 0.00 0.00 0.00 73 1013.0
20260904074823 80 110 1.0 4.0 0.00 0.00 0.00 73 1013.0
20260904074317 80 44 0.0 4.0 0.00 0.00 0.00 73 1012.9
20260904073811 80 196 0.0 2.0 0.00 0.00 0.00 72 1013.0
20260904073305 80 226 0.0 3.0 0.00 0.00 0.00 72 1013.0
20260904072759 80 135 0.0 3.0 0.00 0.00 0.00 72 1013.2
20260904072253 81 113 0.0 3.0 0.00 0.00 0.00 72 1013.2
20260904071748 81 137 0.0 3.0 0.00 0.00 0.00 72 1013.3
20260904071241 81 133 0.0 2.0 0.00 0.00 0.00 72 1013.2
20260904070736 81 138 0.0 3.0 0.00 0.00 0.00 71 1013.3
20260904070230 81 141 0.0 3.0 0.00 0.00 0.00 71 1013.3
20260904065217 81 215 0.0 0.0 0.00 0.00 0.00 70 1013.3
20260904064711 81 215 0.0 0.0 0.00 0.00 0.00 70 1013.3
20260904064205 82 215 0.0 0.0 0.00 0.00 0.00 70 1013.4
20260904063659 82 215 0.0 0.0 0.00 0.00 0.00 69 1013.3
20260904063153 82 215 0.0 0.0 0.00 0.00 0.00 69 1013.3
20260904062647 82 215 0.0 0.0 0.00 0.00 0.00 69 1013.4
20260904062146 82 215 0.0 0.0 0.00 0.00 0.00 69 1013.4
20260904061635 82 215 0.0 2.0 0.00 0.00 0.00 68 1013.4
20260904061130 82 215 0.0 2.0 0.00 0.00 0.00 68 1013.4
20260904060623 82 232 0.0 2.0 0.00 0.00 0.00 68 1013.4
20260904060119 83 232 0.0 2.0 0.00 0.00 0.00 68 1013.4
20260904055105 83 121 0.0 3.0 0.00 0.00 0.00 67 1013.3
20260904054559 83 210 0.0 2.0 0.00 0.00 0.00 67 1013.2
20260904053547 83 288 0.0 3.0 0.00 0.00 0.00 67 1013.3
20260904053041 83 249 0.0 2.0 0.00 0.00 0.00 66 1013.2